Location: Brno
(49.2000°N, 16.6330°E)
Time: 10:57:32
(UTC+01:00)

Meteor 1-4 Rocket - Visible Passes

Search period start: 21 December 2014 00:00
Search period end: 31 December 2014 00:00
Orbit: 467 x 529 km, 81.2° (Epoch: 19 December)

Date Brightness Start Highest point End Pass type
(mag) Time Alt. Az. Time Alt. Az. Time Alt. Az.
21 Dec 3.7 05:04:12 41° SSE 05:04:12 41° SSE 05:06:50 10° SSE visible
21 Dec 4.4 17:16:32 10° SE 17:18:01 15° ESE 17:18:01 15° ESE visible
21 Dec 4.3 18:50:25 10° SW 18:52:43 32° WSW 18:52:43 32° WSW visible
22 Dec 4.9 04:44:51 21° SSE 04:44:51 21° SSE 04:46:16 10° SSE visible
22 Dec 4.5 16:57:02 10° ESE 16:58:24 12° E 16:58:35 12° E visible
22 Dec 3.1 18:29:45 10° SSW 18:33:17 59° W 18:33:17 59° W visible
23 Dec 5.7 04:25:32 10° SE 04:25:32 10° SE 04:25:36 10° SE visible
23 Dec 2.6 18:09:09 10° SSW 18:12:48 82° WNW 18:13:46 48° N visible
24 Dec 2.5 17:48:37 10° S 17:52:16 72° E 17:54:10 27° NNE visible
24 Dec 5.8 19:27:04 10° W 19:28:18 11° WNW 19:28:51 11° NW visible
25 Dec 2.7 17:28:10 10° S 17:31:44 51° E 17:34:28 17° NNE visible
25 Dec 5.5 19:05:25 10° W 19:07:35 15° WNW 19:09:09 12° NW visible
26 Dec 3.2 17:07:47 10° SSE 17:11:12 37° E 17:14:41 10° NNE visible
26 Dec 5.2 18:44:09 10° WSW 18:46:52 19° WNW 18:49:22 11° NNW visible
27 Dec 3.6 16:47:30 10° SSE 16:50:41 28° E 16:53:56 10° NNE visible
27 Dec 4.8 18:23:03 10° SW 18:26:09 25° WNW 18:29:20 10° NNW visible
28 Dec 4.3 18:02:05 10° SW 18:05:27 33° WNW 18:08:55 10° N visible
29 Dec 3.8 17:41:11 10° SSW 17:44:45 44° WNW 17:48:26 10° N visible
30 Dec 3.2 17:20:23 10° SSW 17:24:04 61° WNW 17:27:52 10° N visible
